Location: Peach Mountain Observatory
(42.3967°N, 83.9367°W)
Time: 07:33:55
(UTC-04:00)

deb Explorer IX - Pass Details

Date: 29 January 2020
Orbit: 547 x 1100 km, 38.8° (Epoch: 06 April)

Event Time Altitude Azimuth Distance (km) Brightness Sun altitude
Rises 23:11:40 0° 268° (W) 3,722 - -57.9°
Reaches altitude 10° 23:14:16 10° 265° (W) 2,829 - -58.2°
Maximum altitude 23:21:12 65° 186° (S) 1,184 - -59.1°
Drops below altitude 10° 23:28:26 10° 106° (ESE) 2,946 - -60.0°
Sets 23:31:12 0° 104° (ESE) 3,883 - -60.4°
